Temp
66 66 66 65 53 46 41 52 59 62 68 75 76 75 72 73 72 64 76 81 80 77 78 78 79 79 79 79 79 78 78 78 79 79 79 79 79 79 79 79 79 80 80 80 80 80 80 80 80
65 70 65 56 46 37 43 54 58 63 73 75 77 76 73 72 78 76 74 81 80 79 77 77 79 79 79 79 78 78 78 78 78 78 79 79 79 79 79 79 79 80 80 80 80 80 80 80 80
67 68 57 51 42 41 45 55 60 64 72 74 73 80 75 73 80 77 78 80 80 78 78 77 78 79 79 79 78 78 78 78 79 79 79 79 78 78 78 78 79 80 80 80 80 80 79 80 80
64 60 56 45 46 46 52 54 59 63 69 73 74 73 79 84 80 81 79 80 78 77 78 79 78 78 79 79 78 78 78 78 79 79 79 78 79 78 78 78 79 80 80 80 80 79 79 79 79
59 53 43 39 44 50 57 59 61 61 64 69 75 72 73 81 85 80 78 79 77 77 78 78 78 78 79 79 78 78 78 78 78 78 79 79 78 78 78 78 79 79 79 79 79 79 79 78 78
52 50 38 41 48 52 56 60 61 61 64 70 71 73 72 79 81 79 80 79 79 77 78 77 78 78 78 78 78 78 77 77 78 78 78 78 78 78 78 78 78 79 79 79 79 79 78 78 78
48 43 37 39 44 48 57 61 58 60 63 67 74 70 73 75 79 81 79 79 78 78 77 78 77 78 78 78 78 77 77 77 77 77 77 77 77 77 77 78 78 78 78 78 78 78 78 78 77
51 46 37 41 44 45 58 61 61 61 66 76 79 68 69 75 78 78 78 77 76 77 78 77 76 77 76 77 78 77 77 77 77 77 77 77 77 77 77 77 77 78 78 78 78 78 78 77 77
55 40 33 39 45 49 56 54 65 71 68 71 75 76 79 82 78 75 72 72 74 75 77 77 76 75 75 75 77 77 78 77 77 77 77 75 72 73 74 75 77 78 78 78 78 78 77 77 77
49 37 41 50 53 52 58 57 61 64 66 66 71 78 81 79 75 71 70 70 71 72 73 75 75 74 74 77 76 74 76 75 74 73 73 71 70 70 74 74 77 78 78 78 78 78 78 77 74
46 43 50 55 57 57 59 59 65 62 60 64 67 72 76 75 73 71 71 72 71 73 74 75 75 75 75 76 74 74 74 73 72 72 72 69 71 68 69 67 69 70 74 72 74 74 73 74 74
45 54 55 55 59 57 56 61 60 63 64 71 73 74 77 75 70 72 72 72 73 72 74 75 77 76 75 75 73 73 72 72 70 71 69 67 66 65 66 67 69 69 70 70 70 71 73 74 76
47 51 56 57 55 55 59 58 59 61 68 72 74 75 73 73 70 71 73 74 74 72 73 76 77 75 75 73 73 73 72 72 72 70 69 68 65 66 67 67 68 70 70 69 71 72 72 72 77
51 52 54 55 54 54 55 57 57 63 68 69 71 70 70 70 70 71 70 69 70 73 72 75 75 73 72 73 72 72 72 72 70 69 70 69 67 67 68 67 69 69 70 70 72 71 70 68 68
52 45 51 53 53 53 57 53 55 64 66 66 68 70 71 69 71 70 71 70 70 72 73 72 72 73 71 72 71 72 72 70 70 70 68 69 68 68 69 68 69 70 70 70 70 68 66 66 67
45 41 34 47 54 56 53 44 57 61 60 61 65 69 70 67 70 71 72 70 70 69 71 72 75 72 72 71 72 72 71 70 70 70 69 70 70 70 69 68 69 70 69 68 67 65 64 64 63
38 34 37 44 51 52 51 46 56 60 60 59 61 64 67 67 69 69 71 71 70 69 68 73 74 72 72 71 71 70 70 71 72 70 71 71 73 73 70 70 68 68 66 66 66 63 64 62 62
36 37 41 42 47 50 48 48 56 58 58 58 59 62 63 65 67 70 70 73 72 70 68 70 73 71 71 71 68 67 67 68 70 72 73 73 73 73 70 68 67 66 65 64 64 63 62 60 59
46 42 40 46 51 48 47 48 53 57 55 55 56 59 61 63 67 68 70 72 72 70 68 69 69 70 70 69 70 68 69 69 68 70 72 72 73 72 69 67 65 64 64 63 63 61 61 60 59
45 41 40 46 51 46 46 46 52 55 56 57 57 59 61 62 64 66 67 68 69 68 69 68 69 69 70 73 73 70 70 68 70 69 70 71 71 70 69 67 64 63 63 62 62 62 59 59 57
42 40 41 41 48 48 45 41 46 54 57 59 60 61 63 61 61 64 67 66 68 66 67 66 65 66 68 71 71 68 69 68 66 67 68 69 70 69 67 65 64 62 61 60 59 60 59 56 56
37 49 46 44 40 34 47 30 43 49 50 53 57 57 60 62 64 65 65 67 68 67 66 65 64 63 64 67 70 74 74 68 68 67 68 68 68 68 66 64 62 61 62 64 62 59 57 56 55
42 50 47 45 40 37 38 33 38 46 45 50 54 57 60 63 63 64 66 66 69 70 68 65 64 64 64 64 65 65 68 69 68 68 67 65 65 65 64 63 63 64 65 62 59 57 56 56 59
53 46 45 43 36 29 38 36 36 41 45 50 53 57 61 63 64 64 68 68 68 70 69 65 64 63 64 65 65 64 68 69 68 67 65 64 63 63 63 63 64 64 63 60 57 57 57 58 59
48 40 31 28 29 28 41 35 37 47 51 53 54 57 59 62 63 61 63 65 66 66 67 69 65 65 64 65 64 65 69 70 68 67 65 63 62 63 63 63 62 62 61 58 57 56 57 56 54
43 39 31 24 27 30 38 30 38 50 53 54 56 56 59 59 60 62 64 65 65 66 68 66 61 63 64 65 66 65 70 68 69 68 65 62 62 62 61 61 61 60 59 57 56 55 56 54 53
43 37 43 32 35 30 32 39 47 52 51 53 54 56 57 58 60 63 63 65 64 66 66 65 63 63 64 63 65 68 68 68 68 64 63 61 61 60 60 60 60 60 60 59 55 54 53 53 52
46 48 36 34 27 27 35 35 37 44 46 50 50 50 52 57 58 60 63 64 64 66 66 67 65 64 65 67 69 68 67 66 64 63 61 60 59 59 58 58 58 58 57 55 53 52 52 51 50
43 39 41 38 35 30 29 36 48 46 48 49 52 50 51 55 59 60 63 64 65 66 66 66 67 68 68 68 68 66 64 63 63 61 59 58 59 58 57 55 54 52 52 51 50 50 51 50 49
50 45 43 35 33 34 35 36 51 52 51 52 52 52 53 56 59 63 62 63 65 67 68 69 71 70 68 68 65 63 62 60 59 58 58 58 55 55 54 53 52 51 49 48 49 49 49 48 47
MSLP
1009.98 1009.64 1009.71 1010.01 1011.41 1011.74 1010.53 1008.59 1006.77 1005.57 1004.47 1003.74 1003.18 1003.46 1003.53 1003.81 1003.76 1003.61 1002.13 1001.49 1001.74 1004.08 1005.59 1006.07 1007.13 1007.84 1008.03 1008.08 1008.33 1008.36 1008.60 1008.68 1009.00 1009.45 1009.72 1009.89 1010.18 1010.31 1010.53 1010.92 1011.18 1011.31 1011.17 1011.11 1011.20 1011.26 1011.27 1011.27 1011.40
1010.03 1009.71 1010.00 1010.87 1011.97 1011.97 1009.82 1007.78 1006.28 1005.55 1004.32 1003.76 1003.51 1003.18 1003.14 1002.76 1002.73 1002.80 1002.27 1001.84 1001.16 1001.86 1003.80 1005.77 1006.73 1007.39 1007.62 1008.09 1008.54 1008.77 1008.87 1008.89 1009.12 1009.47 1009.84 1010.02 1010.23 1010.36 1010.67 1010.99 1011.21 1011.37 1011.39 1011.20 1011.13 1011.20 1011.20 1011.32 1011.55
1010.09 1010.12 1010.73 1011.30 1011.47 1010.51 1009.28 1007.27 1006.10 1005.56 1004.61 1003.96 1003.54 1003.21 1002.83 1002.17 1002.07 1001.95 1001.70 1002.15 1003.08 1002.18 1002.92 1004.60 1005.81 1006.87 1007.40 1007.73 1008.49 1009.01 1009.16 1009.16 1009.38 1009.48 1009.91 1010.13 1010.33 1010.50 1010.85 1011.16 1011.17 1011.35 1011.47 1011.39 1011.07 1011.09 1011.20 1011.39 1011.60
1010.37 1010.77 1011.60 1011.49 1010.52 1009.53 1008.21 1006.90 1006.16 1005.63 1004.87 1004.06 1003.79 1003.12 1002.31 1000.84 1001.22 1001.20 1001.71 1002.59 1003.51 1003.37 1003.54 1004.12 1005.32 1006.40 1007.03 1007.61 1008.24 1008.93 1009.28 1009.36 1009.60 1009.65 1009.91 1010.28 1010.48 1010.61 1010.89 1011.17 1011.30 1011.17 1011.34 1011.42 1011.39 1011.15 1011.22 1011.50 1011.60
1010.76 1011.64 1012.22 1011.69 1010.03 1008.92 1007.74 1006.91 1006.32 1006.16 1005.66 1004.73 1003.97 1002.94 1001.90 1000.70 1000.56 1001.18 1002.21 1003.00 1003.16 1003.27 1003.57 1003.85 1004.65 1005.80 1006.82 1007.33 1008.09 1008.78 1009.20 1009.35 1009.71 1009.87 1010.01 1010.37 1010.62 1010.81 1010.94 1011.21 1011.33 1011.38 1011.24 1011.40 1011.41 1011.38 1011.33 1011.56 1011.78
1011.77 1012.41 1013.03 1011.99 1009.77 1008.64 1007.69 1006.78 1006.41 1006.22 1005.47 1004.70 1003.83 1002.82 1001.80 1000.78 1000.91 1001.59 1002.36 1003.37 1004.15 1004.38 1004.86 1003.69 1004.73 1005.61 1006.63 1006.98 1007.64 1008.54 1009.07 1009.22 1009.54 1009.87 1010.20 1010.51 1010.74 1010.86 1011.05 1011.28 1011.24 1011.41 1011.36 1011.34 1011.53 1011.55 1011.47 1011.65 1011.78
1012.12 1012.94 1012.56 1011.58 1010.13 1009.08 1007.69 1006.65 1006.52 1006.21 1005.66 1004.66 1004.07 1003.29 1001.85 1001.18 1001.36 1001.60 1002.57 1003.56 1004.27 1004.92 1004.54 1005.23 1004.82 1005.41 1006.21 1007.10 1007.69 1008.01 1008.90 1009.21 1009.47 1009.66 1010.12 1010.62 1010.92 1011.05 1011.29 1011.42 1011.35 1011.43 1011.49 1011.39 1011.55 1011.71 1011.66 1011.60 1011.73
1011.92 1012.59 1012.36 1011.22 1010.12 1009.04 1007.65 1007.17 1006.60 1006.07 1005.49 1004.76 1004.08 1003.24 1002.55 1001.89 1001.86 1002.07 1002.62 1003.54 1004.36 1005.14 1005.12 1004.62 1005.02 1005.39 1006.13 1006.92 1007.54 1008.06 1008.41 1009.10 1009.51 1009.61 1010.01 1010.48 1010.87 1011.13 1011.37 1011.48 1011.34 1011.54 1011.55 1011.34 1011.45 1011.68 1011.65 1011.55 1011.51
1011.56 1012.62 1012.51 1011.36 1010.31 1009.13 1008.11 1007.75 1006.69 1005.92 1005.57 1005.18 1004.30 1003.26 1002.32 1001.38 1002.05 1002.27 1003.18 1004.00 1004.53 1005.16 1005.04 1005.28 1004.90 1005.27 1005.70 1006.65 1007.43 1007.86 1008.13 1008.92 1009.36 1009.71 1009.98 1010.37 1010.75 1011.03 1011.36 1011.47 1011.57 1011.53 1011.58 1011.60 1011.35 1011.58 1011.58 1011.50 1011.36
1011.84 1012.50 1011.87 1010.87 1010.00 1009.05 1008.10 1007.63 1007.17 1006.12 1005.02 1004.83 1004.20 1002.69 1001.91 1000.95 1001.21 1001.76 1002.48 1003.20 1003.99 1004.53 1004.66 1004.58 1004.92 1005.59 1005.63 1006.13 1007.18 1007.80 1008.18 1008.65 1009.21 1009.66 1009.98 1010.33 1010.62 1010.91 1011.16 1011.37 1011.50 1011.46 1011.71 1011.70 1011.34 1011.42 1011.49 1011.30 1011.36
1011.58 1011.62 1011.12 1010.43 1009.56 1008.85 1008.08 1007.45 1006.79 1005.98 1004.75 1004.79 1004.17 1003.30 1002.54 1002.65 1002.74 1001.29 1001.84 1002.05 1002.57 1003.95 1004.37 1004.07 1004.48 1005.06 1006.24 1005.95 1006.62 1007.61 1008.05 1008.45 1008.99 1009.38 1009.69 1010.40 1010.62 1010.71 1011.04 1011.42 1011.34 1011.35 1011.69 1011.65 1011.34 1011.21 1011.50 1011.38 1011.34
1011.77 1011.03 1010.62 1010.04 1009.27 1008.82 1008.08 1007.21 1006.27 1005.71 1005.00 1004.39 1004.00 1003.43 1002.87 1002.68 1003.27 1003.54 1002.98 1002.44 1003.03 1003.59 1004.14 1004.12 1004.39 1005.02 1005.80 1006.23 1006.54 1007.33 1007.94 1008.16 1008.64 1009.15 1009.42 1010.10 1010.53 1010.94 1011.16 1011.42 1011.39 1011.34 1011.43 1011.48 1011.44 1011.33 1011.28 1011.40 1011.30
1011.28 1010.79 1010.33 1009.65 1009.24 1008.69 1007.80 1006.80 1006.37 1005.10 1004.72 1003.75 1003.36 1003.15 1002.87 1002.61 1002.41 1003.05 1003.80 1004.15 1003.22 1003.31 1003.90 1003.96 1004.35 1004.97 1005.42 1006.07 1006.61 1007.18 1007.82 1008.00 1008.18 1008.74 1009.07 1009.54 1010.15 1010.60 1010.97 1011.26 1011.47 1011.21 1011.19 1011.26 1011.24 1011.29 1011.42 1011.54 1011.45
1011.24 1010.59 1009.90 1009.15 1008.72 1008.07 1007.38 1006.25 1005.91 1004.85 1004.20 1003.40 1002.90 1002.61 1002.58 1002.34 1001.71 1002.27 1003.10 1004.12 1004.81 1004.42 1003.69 1003.98 1004.27 1004.75 1005.39 1006.07 1006.56 1007.01 1007.73 1007.99 1008.22 1008.57 1008.75 1009.33 1009.66 1010.12 1010.56 1011.07 1011.29 1011.00 1010.96 1010.94 1010.91 1011.32 1011.54 1011.91 1011.92
1011.10 1010.65 1009.45 1008.51 1007.81 1007.34 1006.57 1005.57 1004.99 1004.48 1003.97 1003.22 1002.62 1002.39 1002.11 1001.90 1001.41 1001.74 1002.58 1003.63 1004.51 1005.50 1004.28 1003.98 1004.14 1004.55 1005.16 1006.01 1006.62 1006.80 1007.32 1007.84 1008.38 1008.59 1008.68 1009.15 1009.61 1009.89 1010.21 1010.66 1010.92 1011.00 1010.88 1011.06 1011.36 1011.83 1012.10 1012.31 1012.28
1011.34 1011.08 1010.34 1008.59 1007.98 1007.27 1006.76 1005.33 1004.49 1004.23 1003.99 1003.38 1002.70 1002.48 1002.04 1001.95 1001.39 1001.13 1001.40 1002.42 1004.36 1005.09 1005.49 1005.46 1004.96 1004.21 1005.02 1005.57 1006.41 1006.80 1007.17 1007.61 1008.10 1008.47 1008.84 1009.08 1009.34 1009.61 1010.05 1010.42 1010.70 1010.76 1011.08 1011.40 1011.82 1012.28 1012.56 1012.63 1012.78
1011.57 1011.27 1010.30 1009.09 1008.08 1007.47 1006.56 1005.30 1004.23 1004.07 1003.97 1003.39 1002.69 1002.61 1002.32 1002.12 1002.04 1002.01 1001.22 1001.68 1003.96 1004.59 1005.33 1005.98 1006.03 1005.34 1004.56 1005.62 1006.28 1006.86 1007.30 1007.54 1007.72 1008.26 1008.70 1008.95 1009.22 1009.43 1009.84 1010.38 1010.71 1011.08 1011.61 1011.98 1012.21 1012.62 1012.73 1013.04 1013.21
1011.39 1010.95 1009.86 1009.14 1008.04 1007.49 1006.02 1004.95 1004.02 1003.78 1003.67 1003.22 1002.53 1002.28 1002.37 1001.83 1001.91 1001.62 1001.89 1001.27 1002.72 1003.81 1004.64 1005.39 1006.22 1007.09 1005.44 1005.35 1006.24 1006.86 1007.27 1007.53 1007.78 1008.21 1008.38 1008.60 1009.03 1009.27 1009.70 1010.39 1010.89 1011.41 1012.04 1012.43 1012.59 1012.85 1012.99 1013.30 1013.45
1010.83 1010.34 1009.07 1007.95 1007.98 1007.53 1005.95 1005.13 1004.10 1003.18 1003.29 1002.91 1002.23 1001.73 1002.12 1001.78 1001.39 1000.92 1001.13 1001.15 1001.98 1002.93 1003.93 1004.79 1005.57 1006.49 1006.59 1005.38 1005.93 1006.85 1007.21 1007.59 1007.90 1008.15 1008.26 1008.66 1009.01 1009.48 1009.98 1010.59 1011.17 1011.89 1012.21 1012.47 1012.83 1013.09 1013.41 1013.60 1013.50
1010.01 1009.58 1008.36 1007.15 1007.09 1006.96 1005.93 1004.30 1003.46 1003.18 1002.21 1002.12 1001.80 1001.10 1001.33 1001.51 1001.05 1000.78 1000.71 1001.31 1001.73 1002.29 1002.98 1004.33 1005.23 1006.07 1007.13 1005.66 1005.57 1006.27 1006.92 1007.44 1007.84 1008.17 1008.48 1008.60 1009.06 1009.57 1010.03 1010.64 1011.36 1011.90 1012.42 1012.80 1013.10 1013.18 1013.71 1014.04 1014.18
1009.31 1009.08 1008.12 1007.40 1006.29 1006.14 1005.83 1003.65 1003.12 1002.12 1001.64 1001.08 1000.82 1000.12 1000.18 1000.64 1000.81 1000.54 1000.33 1000.66 1001.41 1002.02 1002.39 1003.71 1004.75 1005.82 1006.92 1006.68 1005.99 1006.38 1006.79 1007.49 1008.03 1008.42 1008.64 1008.98 1009.25 1009.68 1010.10 1010.83 1011.43 1011.93 1012.39 1013.03 1013.27 1013.37 1013.73 1014.53 1014.60
1008.59 1007.18 1006.89 1006.71 1006.88 1005.72 1005.08 1003.16 1001.89 1001.36 1000.92 1000.74 999.89 999.54 999.19 999.60 999.93 999.93 1000.04 1000.35 1000.59 1001.44 1002.22 1003.49 1004.27 1005.42 1006.65 1006.80 1006.93 1006.78 1006.88 1007.64 1008.06 1008.40 1008.86 1009.28 1009.55 1010.16 1010.50 1011.16 1011.91 1012.33 1012.80 1013.18 1013.44 1013.58 1013.92 1014.03 1014.51
1007.08 1006.53 1006.60 1006.47 1005.95 1005.78 1004.43 1003.97 1001.16 1000.51 999.97 999.68 999.20 998.66 997.94 998.44 999.14 999.24 999.47 999.83 1000.12 1000.63 1002.14 1003.48 1004.03 1003.91 1005.71 1006.46 1007.58 1008.10 1007.49 1007.66 1008.27 1009.01 1009.62 1009.75 1010.50 1010.55 1010.68 1011.41 1012.06 1012.69 1013.09 1013.68 1013.98 1014.27 1014.04 1014.33 1014.80
1006.67 1006.78 1006.66 1006.53 1006.41 1005.66 1003.83 1004.16 1000.22 999.68 998.76 998.59 998.41 997.99 997.18 997.54 998.20 998.41 998.40 999.17 999.82 1000.79 1001.85 1002.88 1002.91 1003.14 1004.44 1005.95 1007.32 1008.04 1008.21 1007.47 1008.40 1009.37 1009.96 1010.81 1011.27 1011.54 1011.35 1011.87 1012.19 1013.04 1013.68 1014.30 1014.42 1014.61 1014.67 1014.60 1015.13
1007.56 1007.74 1007.08 1006.83 1006.21 1004.91 1003.41 1003.22 1000.31 999.08 998.26 997.98 997.72 997.01 996.72 996.74 997.25 997.97 998.30 999.28 1000.08 1001.04 1001.54 1001.96 1002.30 1002.42 1002.89 1004.57 1006.06 1007.18 1008.24 1007.26 1007.78 1008.56 1009.68 1010.97 1011.58 1011.79 1012.21 1012.50 1012.94 1013.46 1014.18 1014.89 1014.95 1015.05 1015.16 1015.41 1015.79
1007.78 1008.48 1008.05 1007.29 1006.30 1004.77 1003.35 1002.32 1000.10 998.72 998.25 997.66 997.23 996.91 996.34 995.98 996.80 997.34 997.29 997.91 998.75 999.78 1000.48 1001.03 1001.42 1002.25 1002.67 1002.63 1004.48 1005.71 1007.86 1007.51 1007.62 1008.60 1009.57 1010.86 1011.54 1012.16 1012.58 1013.13 1013.42 1014.01 1014.46 1015.21 1015.16 1015.41 1015.97 1016.14 1016.21
1007.66 1008.04 1007.77 1007.57 1006.38 1005.39 1003.12 1001.08 999.73 998.75 997.92 997.97 997.89 997.15 996.72 995.86 996.40 996.01 997.17 997.48 998.16 998.89 999.69 1000.01 1000.88 1001.09 1001.74 1003.12 1004.25 1005.85 1005.73 1007.16 1007.77 1008.76 1010.06 1011.14 1012.02 1012.36 1013.07 1013.51 1014.14 1014.79 1015.31 1015.74 1015.61 1016.12 1016.63 1016.47 1016.58
1007.45 1007.54 1007.55 1007.47 1006.33 1005.02 1002.71 1001.65 1000.94 999.60 999.01 998.68 998.45 998.13 997.12 996.55 996.32 996.09 996.80 997.30 997.87 998.70 999.80 1000.42 1000.97 1001.64 1002.66 1003.97 1005.27 1005.49 1005.94 1007.09 1008.20 1009.36 1010.74 1011.78 1012.34 1012.76 1013.64 1014.27 1015.10 1015.63 1015.78 1016.09 1016.41 1016.65 1016.78 1016.96 1017.30
1007.36 1007.15 1007.21 1007.04 1006.47 1005.12 1003.58 1002.10 1001.36 1000.63 999.90 998.94 998.68 998.05 997.57 996.84 995.95 996.24 996.86 997.28 997.70 998.43 999.42 1000.45 1001.61 1002.62 1003.07 1004.60 1004.98 1005.47 1006.45 1007.36 1008.42 1010.12 1011.26 1012.12 1012.99 1013.44 1014.16 1015.09 1016.01 1016.38 1016.54 1016.80 1016.70 1016.77 1017.63 1017.87 1018.03
1007.22 1006.67 1006.73 1006.57 1005.74 1004.96 1004.14 1002.57 1001.27 1000.71 1000.01 999.26 998.37 997.52 996.83 996.12 995.54 996.04 996.53 997.28 997.94 998.51 999.03 999.51 1000.82 1001.89 1002.95 1004.37 1004.71 1005.75 1006.82 1007.58 1008.89 1010.43 1011.26 1012.37 1013.08 1014.10 1014.71 1015.65 1016.70 1017.18 1017.14 1017.07 1017.07 1017.45 1018.23 1018.23 1018.50
Wind_Speed
8 7 1 4 4 5 4 9 3 3 5 1 3 4 6 3 5 6 2 19 23 22 15 16 17 14 15 16 17 18 19 20 19 18 17 16 15 16 15 13 11 11 11 11 9 7 5 3 3
5 4 4 3 5 3 7 6 10 5 5 2 4 2 2 5 3 1 2 10 25 28 22 16 19 17 17 17 16 16 17 18 18 17 16 15 15 15 15 12 11 10 9 9 7 5 3 1 4
4 0 4 5 5 9 6 6 8 2 5 6 2 3 4 5 3 5 6 11 13 21 21 21 24 20 18 19 17 15 16 16 16 17 16 15 14 14 12 11 10 9 8 6 6 5 3 1 3
2 4 4 3 13 7 6 1 2 5 6 5 3 7 5 7 4 4 13 16 15 16 18 25 24 22 21 20 18 17 15 16 15 16 15 14 14 13 11 10 8 10 8 6 4 4 3 2 3
3 3 0 4 8 5 4 3 5 5 4 5 6 8 8 3 5 9 14 16 19 19 18 21 28 25 22 21 20 18 17 16 14 14 15 14 13 12 11 10 9 8 8 6 6 4 4 4 5
3 3 1 10 12 2 4 4 3 2 2 5 4 7 7 1 4 10 11 11 10 12 11 20 24 24 22 23 22 19 17 16 16 14 13 12 12 12 10 9 9 8 7 6 6 5 5 6 6
6 4 5 4 4 2 2 2 1 2 3 3 7 7 6 3 4 11 12 9 10 10 15 13 16 21 23 21 21 21 18 16 16 15 13 11 11 10 8 7 8 7 6 5 6 6 7 7 7
5 4 3 4 3 6 0 9 5 4 3 9 5 5 8 6 10 13 13 11 11 11 12 17 15 15 15 14 21 20 20 17 16 15 14 12 11 10 8 8 8 7 6 6 5 7 8 8 9
3 3 3 5 3 6 7 6 7 7 7 6 7 6 13 11 16 16 14 10 13 12 15 15 16 14 14 13 15 19 22 18 16 14 14 10 5 6 7 8 8 7 7 6 5 7 8 8 9
4 4 7 6 5 8 12 9 10 12 19 11 9 16 17 17 20 20 19 19 19 18 17 15 15 13 14 12 12 10 11 9 8 8 8 5 6 5 6 7 8 8 6 7 6 6 7 6 3
1 5 5 9 11 10 15 14 11 16 19 7 9 15 7 5 6 19 19 22 23 17 13 16 16 15 13 12 10 6 6 6 6 9 8 5 4 4 3 2 3 2 4 3 4 3 1 3 1
5 8 6 6 6 7 10 6 10 13 15 12 14 8 7 8 7 8 12 18 20 19 16 16 16 15 14 9 9 9 7 7 6 7 8 6 3 4 3 3 3 3 3 4 3 2 3 2 2
6 3 7 8 9 7 10 13 14 18 10 12 13 12 9 9 12 12 9 10 12 19 18 18 18 16 13 12 9 9 8 8 8 8 8 7 5 5 4 3 2 4 4 3 3 2 4 1 4
4 10 12 8 10 7 10 12 4 8 10 11 11 10 8 12 18 11 5 6 10 13 17 21 21 16 13 11 12 9 7 6 6 6 8 8 5 5 4 3 4 4 3 3 4 4 4 3 3
6 10 12 9 6 6 7 12 10 8 7 11 11 9 6 10 13 13 6 3 6 12 12 18 19 17 16 13 10 8 8 6 5 6 6 8 6 5 5 4 4 3 3 5 4 4 4 4 2
5 3 4 7 7 7 4 10 10 4 6 10 12 10 7 5 11 10 8 6 7 7 10 12 14 18 17 13 11 8 6 6 6 4 5 7 7 7 5 5 4 4 4 4 4 3 3 3 4
2 6 7 8 1 6 5 10 7 6 8 9 10 9 8 4 7 11 15 13 14 9 8 11 12 15 18 11 9 6 7 6 6 5 5 6 7 7 5 4 4 5 4 4 3 3 2 3 3
8 9 11 14 3 7 18 20 18 6 7 10 11 9 6 9 10 10 18 26 26 13 9 8 7 8 10 10 6 4 4 4 4 5 6 8 5 7 5 5 6 5 4 3 3 4 4 3 3
14 14 21 19 10 14 23 20 19 11 8 8 11 9 7 10 8 10 13 16 20 14 12 9 8 8 8 9 10 6 6 4 2 3 6 7 6 5 6 5 6 5 4 4 3 3 5 5 4
15 17 22 20 13 10 13 21 19 15 19 12 12 14 11 7 7 8 11 15 14 14 14 9 8 6 7 7 7 4 5 2 3 2 4 6 7 7 7 8 6 6 5 5 3 3 2 4 5
9 13 18 19 17 12 16 24 18 19 17 16 14 15 12 9 10 9 12 10 11 11 14 13 10 7 3 6 3 3 5 4 3 3 4 5 6 6 8 7 7 6 5 4 3 3 4 3 3
15 11 20 19 11 10 7 13 19 14 17 10 13 11 13 9 11 13 13 13 14 12 11 11 12 10 5 11 4 6 7 5 2 3 5 6 8 9 8 8 7 6 4 5 4 3 2 3 3
13 10 14 17 17 12 18 10 13 11 15 19 15 16 15 11 14 16 19 18 18 18 16 11 10 13 8 7 5 8 2 6 6 6 9 10 8 8 10 8 7 7 6 5 6 4 6 3 3
11 8 11 12 3 6 14 10 20 13 19 14 8 10 11 10 13 18 20 19 19 20 16 11 12 11 11 7 5 4 8 11 10 8 8 6 6 5 8 7 8 8 7 5 5 5 6 6 5
5 7 6 3 2 6 1 9 12 15 8 12 10 8 9 10 12 14 16 16 16 20 22 16 14 16 16 13 8 1 11 14 16 14 10 10 6 6 7 8 8 7 7 5 5 6 6 5 5
5 2 4 6 4 9 5 6 6 12 5 5 3 5 5 9 9 14 20 19 20 20 18 13 9 10 13 13 18 3 14 8 10 10 10 7 7 7 8 8 9 9 7 5 6 4 5 5 5
0 5 2 5 4 5 4 7 5 22 21 18 11 6 6 7 10 12 16 15 17 17 18 16 13 7 10 8 6 16 11 13 12 14 11 8 9 9 9 10 9 7 6 6 7 5 5 5 6
5 0 4 3 5 5 4 3 9 23 20 17 14 9 8 7 10 7 13 16 15 16 14 15 14 14 14 18 15 13 13 13 14 13 13 12 10 11 10 10 8 7 8 7 6 5 5 7 4
5 4 5 2 4 3 5 2 8 15 17 18 15 11 7 9 9 10 12 12 14 14 16 15 15 17 14 13 12 14 14 16 15 13 13 12 10 11 11 10 9 8 7 5 7 7 7 8 9
6 11 9 3 4 4 2 4 7 16 15 13 15 15 9 10 10 12 11 15 14 15 15 15 16 14 16 15 14 16 16 17 17 15 15 13 13 11 11 11 9 7 6 6 7 10 7 9 9
Wind_Direction
326 310 318 42 62 62 249 246 217 198 344 351 155 156 202 189 206 214 4 184 150 148 153 146 155 156 140 130 129 127 129 128 130 130 128 127 127 124 122 125 129 128 128 125 122 124 120 103 60
323 333 42 86 116 170 252 237 243 190 238 334 93 305 243 266 258 304 98 192 160 149 148 151 153 153 145 137 135 135 134 133 132 130 130 128 129 127 128 130 133 135 134 130 135 140 150 94 27
307 134 96 145 185 204 229 230 236 336 286 269 276 230 257 220 241 204 228 172 177 146 150 153 152 153 149 144 143 143 139 135 136 135 136 136 134 131 131 138 145 144 144 158 161 175 207 123 15
8 13 23 159 235 249 209 257 49 350 341 320 358 295 259 206 180 185 145 152 161 150 153 149 150 152 151 150 149 148 145 141 144 141 142 143 143 138 140 152 158 154 164 183 207 215 249 341 11
33 54 240 264 252 251 260 279 359 334 348 299 317 260 246 222 136 123 145 158 165 163 157 152 152 153 155 152 152 152 152 149 149 148 150 150 150 147 151 161 166 177 176 199 230 254 288 326 344
51 91 113 242 247 274 311 277 316 26 253 271 268 270 259 279 147 131 139 160 160 157 167 152 152 152 156 154 155 156 159 156 154 154 155 159 159 157 162 168 175 195 195 212 247 270 296 324 330
119 98 229 253 264 323 283 313 250 20 313 328 321 296 270 270 139 136 135 143 151 175 158 163 153 155 156 157 158 156 160 161 160 158 157 162 163 163 169 182 195 205 216 230 265 293 311 318 323
110 102 279 258 283 287 345 341 299 287 273 326 309 286 303 320 141 126 131 139 153 177 174 163 158 155 155 159 161 161 160 165 166 159 159 163 167 173 182 204 211 219 230 240 271 298 308 325 322
118 45 257 269 307 272 317 340 304 272 244 337 270 259 289 255 149 134 136 147 163 180 176 174 158 157 153 157 167 164 163 166 166 166 163 162 159 177 200 216 230 238 249 266 274 297 307 322 317
123 153 228 216 266 294 293 285 293 297 295 297 295 309 334 161 159 156 164 171 177 183 181 169 165 161 155 156 163 162 166 162 165 166 164 161 169 184 197 221 236 250 263 274 284 285 296 315 324
261 211 236 266 261 262 280 290 277 281 280 267 297 302 348 350 261 170 176 180 181 175 179 173 165 159 172 160 153 162 167 164 167 170 157 168 178 188 192 219 246 248 265 267 281 307 280 292 310
313 255 254 283 303 308 293 277 284 265 272 273 268 269 281 209 276 257 213 174 178 180 183 172 171 165 172 160 158 162 171 171 168 176 157 159 179 191 203 216 234 245 232 241 264 293 257 197 169
211 251 289 279 272 253 276 283 267 277 279 276 258 262 236 233 218 216 251 262 187 176 182 178 173 171 170 163 166 166 180 181 177 167 169 171 173 181 189 212 233 251 240 218 215 164 113 134 97
286 286 285 269 275 244 258 270 266 288 290 282 266 249 232 221 248 199 180 229 230 204 182 179 178 172 160 169 170 172 175 182 175 173 177 183 175 170 183 168 216 244 230 183 149 159 119 68 54
261 294 309 293 255 266 250 268 248 270 284 275 271 270 243 224 240 190 165 243 222 247 195 189 177 170 166 168 172 172 177 164 183 186 174 182 178 180 189 167 198 194 120 106 92 73 62 49 27
314 327 333 291 333 274 210 281 289 278 346 299 292 284 254 183 209 221 166 246 244 232 229 210 196 170 170 169 175 176 173 172 182 184 174 184 180 172 176 158 199 152 117 110 98 87 83 58 26
313 252 269 304 293 275 257 271 259 302 285 288 291 300 276 211 186 202 190 216 237 209 204 217 219 195 164 162 167 171 173 177 180 166 174 180 176 171 155 151 128 116 106 96 111 60 75 40 344
258 276 268 270 261 282 276 273 280 243 266 265 271 281 278 260 193 199 208 195 204 182 190 189 212 236 174 147 143 140 156 179 179 183 184 172 170 160 135 118 119 113 111 110 81 95 55 60 336
271 271 265 261 273 280 274 277 273 284 248 251 267 264 267 260 215 210 186 186 179 162 167 181 187 200 203 167 166 167 183 175 166 177 167 153 154 136 120 102 103 106 118 113 110 90 65 21 354
257 266 269 280 253 236 279 276 270 275 265 247 249 261 257 236 200 202 196 177 172 168 151 149 162 187 243 183 164 143 147 151 162 145 129 135 126 137 128 129 123 118 107 85 80 102 112 49 355
254 247 267 268 293 246 273 272 274 266 262 256 237 241 249 228 194 194 194 190 137 134 131 125 113 81 225 254 119 80 92 83 99 120 120 133 131 111 114 116 121 109 100 107 94 80 87 143 16
272 242 253 266 281 282 184 278 276 269 262 241 232 227 236 227 183 189 175 181 162 130 112 122 114 89 54 34 4 191 170 145 134 114 110 105 108 106 105 102 100 100 106 96 82 87 125 122 145
247 275 269 266 263 275 273 262 262 251 247 241 237 224 228 219 173 185 177 166 169 168 165 158 147 127 99 53 36 355 139 107 99 97 104 92 82 100 107 107 104 98 87 85 93 84 74 67 72
257 313 289 276 311 251 255 258 281 255 240 246 226 220 232 219 186 181 184 168 164 178 174 179 170 148 129 114 75 325 229 132 124 122 105 97 102 97 90 94 96 94 94 102 104 90 86 77 83
15 320 306 302 249 255 327 279 260 289 279 227 207 204 239 223 195 165 169 170 166 175 186 192 186 179 154 152 169 335 232 154 146 145 136 136 120 111 101 102 99 95 97 88 92 82 70 70 71
310 246 286 300 309 291 261 244 264 2 25 9 275 233 246 244 185 166 173 173 174 179 183 178 157 146 162 165 186 208 225 161 141 131 126 121 118 110 102 98 100 110 103 109 89 80 73 73 73
305 252 214 267 232 281 268 287 270 353 4 4 9 360 261 266 177 184 168 176 173 178 184 177 167 143 127 128 161 203 148 150 136 117 116 117 114 111 109 103 102 94 99 87 75 74 79 72 65
210 309 272 216 304 301 283 338 350 349 343 342 348 330 307 301 194 216 166 172 179 171 175 183 182 166 166 175 193 158 141 124 119 118 121 117 107 105 100 92 89 85 76 78 87 81 67 71 57
331 324 289 237 255 280 311 358 352 340 334 323 329 303 283 256 211 190 178 175 169 164 168 164 179 174 166 175 162 143 136 126 118 119 113 110 118 104 100 90 84 79 82 82 81 77 63 71 69
359 293 291 285 283 244 264 294 351 343 330 323 325 308 277 215 199 171 168 154 165 172 177 169 172 166 161 163 143 134 133 119 117 122 118 119 105 95 94 88 89 84 82 77 84 77 76 79 76